Location: Kawakawa
(35.3830°S, 174.0670°E)
Time: 03:21:54
(UTC+12:00)

MOS 1 Rocket - Pass Details

Date: 15 August 2020
Orbit: 614 x 830 km, 97.4° (Epoch: 19 September)

Event Time Altitude Azimuth Distance (km) Brightness Sun altitude
Rises 18:11:18 0° 42° (NE) 3,099 6.4 -4.6°
Reaches altitude 10° 18:13:56 10° 55° (NE) 2,151 5.4 -5.1°
Maximum altitude 18:17:43 25° 109° (ESE) 1,364 4.2 -5.9°
Drops below altitude 10° 18:21:23 10° 163° (SSE) 2,078 5.5 -6.6°
Sets 18:23:52 0° 176° (S) 2,971 6.4 -7.1°
